User: anonymous   Login
Location: Asheville, NC
(35.6000°N, 82.5500°W)
Time: 08:24:48
(UTC-04:00)
Language:

DUCHIFAT 1 - Orbit

View from above orbital plane
View from above orbital plane
View from above satellite
View from above satellite

Ground track
Ground track

The orbit data is extracted from the following two-line orbital elements,

1 40021U 14033M   18114.21046228  .00000424  00000-0  49558-4 0  9993
2 40021  97.9169  32.8309 0013167   3.3863 356.7442 14.90265544208917
Epoch (UTC): 24 April 2018 05:03:03
Eccentricity: 0.0013167
inclination: 97.9169°
perigee height: 588 km
apogee height: 606 km
right ascension of ascending node: 32.8309°
argument of perigee: 3.3863°
revolutions per day: 14.90265544
mean anomaly at epoch: 356.7442°
orbit number at epoch: 20891

The dashed part of the orbit path shows where the satellite is in the earth's shadow,  

DLR